Location: Caltech
(34.1382°N, 118.1253°W)
Time: 17:51:14
(UTC-07:00)

Iridium 12 - Visible Passes

Search period start: 15 September 2014 00:00
Search period end: 25 September 2014 00:00
Orbit: 776 x 779 km, 86.4° (Epoch: 15 September)

Date Brightness Start Highest point End Pass type
(mag) Time Alt. Az. Time Alt. Az. Time Alt. Az.
15 Sep 7.3 03:55:38 16° SE 03:58:44 28° E 04:03:09 10° NNE visible
15 Sep 6.5 05:36:10 15° SW 05:39:21 26° W 05:43:40 10° NNW visible
16 Sep 8.2 03:23:10 11° ESE 03:25:30 15° E 03:28:19 10° NE visible
16 Sep 5.7 05:03:42 33° SW 05:05:41 50° W 05:10:45 10° N visible
17 Sep 5.5 04:31:08 59° S 04:32:09 84° E 04:37:22 10° N visible
18 Sep 6.5 03:58:29 42° E 03:58:43 42° E 04:03:36 10° NNE visible
18 Sep 6.9 05:39:00 17° W 05:39:35 18° WNW 05:43:01 10° NW visible
19 Sep 7.7 03:25:45 22° ENE 03:25:45 22° ENE 03:29:20 10° NNE visible
19 Sep 6.2 05:06:16 33° WNW 05:06:16 33° WNW 05:10:32 10° NNW visible
20 Sep 8.5 02:52:58 11° ENE 02:52:58 11° ENE 02:53:36 10° ENE visible
20 Sep 5.9 04:33:29 49° NNW 04:33:29 49° NNW 04:37:25 10° N visible
21 Sep 6.7 04:00:39 38° NNE 04:00:39 38° NNE 04:03:53 10° N visible
21 Sep 7.5 05:41:09 11° WNW 05:41:09 11° WNW 05:41:34 10° WNW visible
22 Sep 7.7 03:27:46 22° NE 03:27:46 22° NE 03:29:57 10° NNE visible
22 Sep 7.2 05:08:16 17° NW 05:08:16 17° NW 05:10:06 10° NNW visible
23 Sep 8.4 02:54:50 12° NE 02:54:50 12° NE 02:55:21 10° NE visible
23 Sep 7.1 04:35:20 22° NNW 04:35:20 22° NNW 04:37:19 10° NNW visible
24 Sep 7.5 04:02:23 21° N 04:02:23 21° N 04:04:01 10° N visible
